Flag for U.S.A. Weather past 2 weeks in Sterling Heights, Michigan, U.S.A.

Now
57 °F

Passing clouds.


Feels Like: 56 °F
Forecast: 49 / 65 °F
Wind: 5 mph from Northwest

Location: Selfridge Air National Guard Base

Current Time: Sep 16, 2014 at 12:16:22 PM

Latest Report: Sep 16, 2014 at 10:55 AM


Visibility: 12 mi

Pressure: 30.17 "Hg

Humidity: 75%

Dew point: 49 °F

Location of Sterling HeightsLocation

Historic Weather in Sterling Heights — Graph

°F

Sterling Heights temperature yesterday

Maximum temperature yesterday: 61 °F (at 3:55 PM)
Minimum temperature yesterday: 45 °F (at 3:58 AM)
Average temperature yesterday: 55 °F

Past Weeks' High & Low Weather Summary

 TemperatureHumidityPressure
High92 °F (Sep 5, 2:55 PM)100% (Sep 1, 10:58 PM)30.38 "Hg (Sep 1, 10:58 PM)
Low40 °F (Sep 14, 4:58 AM)43% (Sep 2, 4:55 PM)29.57 "Hg (Sep 10, 10:58 PM)
Average64 °F77%30.06 "Hg
* Reported Sep 1 10:58 AM — Sep 16 10:55 AM, Sterling Heights, Weather by CustomWeather, © 2014

Note: Actual official high and low records may vary slightly from our data, if they occured in-between our weather recording intervals... More about our weather records

Advertising

Sterling Heights weather history for previous 24 hours

 ConditionsComfort  
Time TempWeatherWind HumidityBarometerVisibility
10:55 AM
Sep 16
57 °FPassing clouds.5 mph75%30.17 "Hg12 mi
10:03 AM52 °FLow clouds.5 mph94%30.15 "Hg7 mi
9:55 AM52 °FLow clouds.5 mph92%30.17 "Hg7 mi
8:55 AM50 °FFog.5 mph96%30.17 "Hg3 mi
7:55 AM48 °FPassing clouds.5 mph94%30.17 "Hg7 mi
6:58 AM48 °FPassing clouds.5 mph93%30.14 "Hg10 mi
5:58 AM49 °FClear.5 mph94%30.12 "Hg10 mi
4:58 AM50 °FClear.3 mph93%30.11 "Hg10 mi
3:58 AM51 °FPassing clouds.6 mph92%30.11 "Hg10 mi
2:58 AM52 °FMostly cloudy.5 mph91%30.10 "Hg10 mi
1:58 AM53 °FPassing clouds.5 mph91%30.10 "Hg10 mi
12:58 AM54 °FMostly cloudy.6 mph91%30.08 "Hg10 mi
11:58 PM
Sep 15
54 °FOvercast.3 mph91%30.08 "Hg10 mi
10:58 PM55 °FLight rain. Overcast.3 mph84%30.08 "Hg10 mi
9:59 PM55 °FPassing clouds.3 mph82%30.07 "Hg10 mi
8:58 PM56 °FLight rain. Passing clouds.5 mph82%30.08 "Hg10 mi
7:55 PM58 °FLight rain. Overcast.3 mph74%30.09 "Hg10 mi
6:55 PM59 °FLight rain. More clouds than sun.No wind64%30.07 "Hg10 mi
5:55 PM61 °FOvercast.5 mph61%30.08 "Hg10 mi
4:55 PM60 °FOvercast.5 mph64%30.09 "Hg10 mi
3:55 PM61 °FMore clouds than sun.6 mph61%30.12 "Hg10 mi
2:55 PM60 °FOvercast.6 mph61%30.13 "Hg10 mi
1:55 PM59 °FOvercast.9 mph63%30.15 "Hg10 mi
12:55 PM59 °FOvercast.8 mph63%30.16 "Hg10 mi
Weather by CustomWeather, © 2014

See weather overviewHow to use our weather pages